FW1247 Weather Reports


time (UTC)temp
C
wind
direction
speed
KPH
gust
KPH
rain 1hr
cm
rain 24hr
cm
rain mn
cm
humidity
%
barometer
mb
20260509220024 11 86 8.0 12.9 0.00 0.00 0.00 71 1015.8
20260509214522 11 113 8.0 16.1 0.00 0.00 0.00 71 1015.9
20260509213022 10 115 6.4 12.9 0.00 0.00 0.00 72 1015.9
20260509211521 10 84 3.2 6.4 0.00 0.00 0.00 76 1015.9
20260509210023 10 92 4.8 11.3 0.00 0.00 0.00 77 1016.0
20260509204520 10 69 4.8 8.0 0.00 0.00 0.00 77 1016.0
20260509203024 10 75 4.8 8.0 0.00 0.00 0.00 77 1016.0
20260509201525 10 70 4.8 14.5 0.00 0.00 0.00 77 1016.0
20260509200019 10 80 4.8 11.3 0.00 0.00 0.00 78 1016.1
20260509194518 10 61 4.8 11.3 0.00 0.00 0.00 78 1016.0
20260509193018 10 69 4.8 8.0 0.00 0.00 0.00 78 1016.1
20260509191518 10 74 3.2 9.7 0.00 0.00 0.00 77 1015.9
20260509190017 10 66 4.8 9.7 0.00 0.00 0.00 76 1015.9
20260509184517 10 84 6.4 12.9 0.00 0.00 0.00 74 1015.9
20260509183015 11 65 4.8 12.9 0.00 0.00 0.00 72 1015.9
20260509181615 11 63 4.8 14.5 0.00 0.00 0.00 72 1016.0
20260509180020 11 71 8.0 14.5 0.00 0.00 0.00 71 1015.9
20260509174513 12 71 8.0 16.1 0.00 0.00 0.00 70 1015.9
20260509173120 12 74 9.7 16.1 0.00 0.00 0.00 68 1016.0
20260509171521 12 99 11.3 17.7 0.00 0.00 0.00 66 1016.0
20260509170014 12 107 9.7 20.9 0.00 0.00 0.00 66 1016.1
20260509164508 13 90 9.7 20.9 0.00 0.00 0.00 65 1016.1
20260509163015 13 100 12.9 20.9 0.00 0.00 0.00 62 1016.2
20260509161507 13 71 14.5 22.5 0.00 0.00 0.00 61 1016.3
20260509160006 13 65 11.3 20.9 0.00 0.00 0.00 61 1016.4
20260509154503 14 92 11.3 22.5 0.00 0.00 0.00 60 1016.5
20260509153003 14 93 8.0 19.3 0.00 0.00 0.00 61 1016.7
20260509151701 14 101 14.5 24.1 0.00 0.00 0.00 57 1016.8
20260509150059 15 63 12.9 19.3 0.00 0.00 0.00 55 1016.8
20260509144558 14 76 12.9 22.5 0.00 0.00 0.00 56 1016.9
20260509143105 15 80 11.3 19.3 0.00 0.00 0.00 57 1017.0
20260509141553 15 103 14.5 20.9 0.00 0.00 0.00 54 1017.1
20260509140047 15 63 11.3 22.5 0.00 0.00 0.00 52 1017.3
20260509134543 15 91 9.7 19.3 0.00 0.00 0.00 50 1017.6
20260509133037 15 79 8.0 19.3 0.00 0.00 0.00 49 1017.8
20260509131541 16 53 8.0 19.3 0.00 0.00 0.00 54 1018.1
20260509130055 15 86 11.3 17.7 0.00 0.00 0.00 56 1018.4
20260509124533 14 88 11.3 22.5 0.00 0.00 0.00 58 1018.5
20260509123039 14 65 9.7 22.5 0.00 0.00 0.00 60 1018.7
20260509121524 15 86 9.7 20.9 0.00 0.00 0.00 59 1018.8
20260509120029 14 63 9.7 20.9 0.00 0.00 0.00 62 1018.8
20260509114523 15 89 9.7 20.9 0.00 0.00 0.00 63 1018.9
20260509113020 14 106 12.9 20.9 0.00 0.00 0.00 64 1018.9
20260509111519 14 86 12.9 20.9 0.00 0.00 0.00 64 1019.0
20260509110016 13 51 14.5 20.9 0.00 0.00 0.00 65 1019.1
20260509104513 13 82 11.3 20.9 0.00 0.00 0.00 65 1019.1
20260509103012 13 101 11.3 22.5 0.00 0.00 0.00 65 1019.2
20260509101513 13 66 12.9 20.9 0.00 0.00 0.00 65 1019.2
20260509100009 13 64 12.9 20.9 0.00 0.00 0.00 66 1019.2
20260509094506 12 84 14.5 20.9 0.00 0.00 0.00 64 1019.2
20260509093005 13 64 11.3 19.3 0.00 0.00 0.00 66 1019.2
20260509091502 12 101 12.9 24.1 0.00 0.00 0.00 68 1019.2
20260509090104 13 90 9.7 17.7 0.00 0.00 0.00 64 1019.2
20260509084608 12 98 12.9 20.9 0.00 0.00 0.00 69 1019.4
20260509083051 12 66 6.4 20.9 0.00 0.00 0.00 71 1019.4
20260509081553 11 109 12.9 20.9 0.00 0.00 0.00 72 1019.5
20260509080051 11 83 12.9 19.3 0.00 0.00 0.00 72 1019.5
20260509074545 11 92 11.3 19.3 0.00 0.00 0.00 74 1019.6
20260509073044 11 96 14.5 20.9 0.00 0.00 0.00 72 1019.5
20260509071534 11 63 17.7 24.1 0.00 0.00 0.00 72 1019.5
20260509070029 11 91 14.5 22.5 0.00 0.00 0.00 73 1019.6
20260509064524 11 99 11.3 20.9 0.00 0.00 0.00 74 1019.6
20260509063023 10 76 12.9 20.9 0.00 0.00 0.00 75 1019.6
20260509061517 10 72 14.5 24.1 0.00 0.00 0.00 76 1019.6
20260509060011 10 98 8.0 19.3 0.00 0.00 0.00 77 1019.7
20260509054509 10 74 6.4 16.1 0.00 0.00 0.00 79 1019.8
20260509053003 10 74 4.8 11.3 0.00 0.00 0.00 80 1019.7
20260509051608 9 34 1.6 6.4 0.00 0.00 0.00 84 1019.7
20260509050056 7 19 1.6 4.8 0.00 0.00 0.00 86 1019.7
20260509044552 6 50 1.6 4.8 0.00 0.00 0.00 88 1019.6
20260509043045 5 355 1.6 4.8 0.00 0.00 0.00 90 1019.6
20260509041543 4 355 0.0 1.6 0.00 0.00 0.00 90 1019.6
20260509040043 3 355 3.2 6.4 0.00 0.00 0.00 90 1019.5
20260509034539 3 355 1.6 4.8 0.00 0.00 0.00 90 1019.6
20260509033035 3 355 0.0 4.8 0.00 0.00 0.00 89 1019.5
20260509031533 3 355 0.0 3.2 0.00 0.00 0.00 89 1019.5
20260509030034 3 355 1.6 4.8 0.00 0.00 0.00 89 1019.5
20260509024530 3 5 1.6 4.8 0.00 0.00 0.00 89 1019.4
20260509023029 3 30 1.6 4.8 0.00 0.00 0.00 89 1019.4
20260509021526 3 53 0.0 3.2 0.00 0.00 0.00 88 1019.6
20260509020023 4 55 1.6 4.8 0.00 0.00 0.00 88 1019.8
20260509014534 4 55 1.6 6.4 0.00 0.00 0.00 88 1019.7
20260509013023 4 55 3.2 6.4 0.00 0.00 0.00 89 1019.7
20260509011519 4 46 4.8 8.0 0.00 0.00 0.00 90 1019.7
20260509010018 4 46 3.2 6.4 0.00 0.00 0.00 90 1019.7
20260509004515 4 30 3.2 6.4 0.00 0.00 0.00 89 1019.9
20260509003013 4 20 1.6 4.8 0.00 0.00 0.00 89 1020.0
20260509001513 5 13 3.2 6.4 0.00 0.00 0.00 88 1020.0
20260509000011 5 5 3.2 4.8 0.00 0.00 0.00 87 1020.1
20260508234509 5 5 1.6 6.4 0.00 0.00 0.00 87 1020.1
20260508233008 5 11 1.6 6.4 0.00 0.00 0.00 86 1020.1
20260508231505 5 23 3.2 6.4 0.00 0.00 0.00 84 1020.2
20260508230002 5 32 3.2 6.4 0.00 0.00 0.00 82 1020.2
20260508224605 6 67 3.2 4.8 0.00 0.00 0.00 81 1020.3
20260508223057 6 67 3.2 8.0 0.00 0.00 0.00 82 1020.3
20260508221555 6 67 4.8 8.0 0.00 0.00 0.00 84 1020.4